Weather in Revsel'ga

Russia / Republic of Karelia     61°10′02″N   34°25′17″E
temp.,
°C
wind,
m/s
gust,
m/s
humid.,
%
clouds,
%
prec.,
mm/h
press.,
hPa
HPBL,
m
27 january, wed
wed2700:00+1se3895100 0.1 1004469
03:00−1ese3898100 0.4 1002360
06:000ese3897100 0.9 1001530
09:00−1sse389499 1.2 1000509
12:00−3ese259493 0.0 1000252
15:00−2e139891 0.1 999201
18:00−5ne019884 0.1 100021
21:00−5w019781 0.1 100121
28 january, thu
thu2800:00−6wsw129766 0.0 100321
03:00−7w129669 0.1 100521
06:00−7s119580 0.0 100621
09:00−5ese239789 0.0 1008102
12:00−4se259491 0.0 1008260
15:00−5ese239788 0.1 1008120
18:00−7e239862 0.0 100878
21:00−7e249881 0.0 1007113
29 january, fri
fri2900:00−7e3798100 0.0 1006255
03:00−5ene3796100 0.2 1004316
06:00−4ene3896100 1.1 1001419
09:00−3e3897100 2.4 1000346
12:000ese2799100 0.6 999294
15:00+1ese3899100 0.9 997337
18:00+1ese3798100 0.1 995346
21:00−1e3798100 1.4 994429
30 january, sat
sat3000:00−2e4897100 1.4 992494
03:00−4e3896100 2.9 990464
06:00−5e3895100 0.8 988418
09:00−6ese3796100 1.6 987388
12:00−5ese3696100 1.3 987291
15:00−3se3797100 2.1 987358
18:00−3sse3797100 0.3 987309
21:00−4sse3896100 0.6 987357
31 january, sun
sun3100:00−6sse2696100 0.1 988193
03:00−7sse2497100 0.1 988115
06:00−8sse2497100 0.1 989119
09:00−8sse2397100 0.1 99095
12:00−6sse2696100 0.0 991319
15:00−5sse2695100 0.1 992386
18:00−6se2697100 0.4 993248
21:00−5sse3896100 0.9 994448